Stations météo

réclame
Mon MeteoGroup
Lyon/Bron, France (7480): Température de l'air & dewpoint: 19.08.2019 18:00:00 - 25.08.2019 18:00:00 (CEST)Lyon/Bron, France (7480): Température de l'air 5cm: 19.08.2019 18:00:00 - 25.08.2019 18:00:00 (CEST)Lyon/Bron, France (7480): Température de l'air -20cm: 19.08.2019 18:00:00 - 25.08.2019 18:00:00 (CEST)Lyon/Bron, France (7480): Vitesse du vent & gusts: 19.08.2019 18:00:00 - 25.08.2019 18:00:00 (CEST)Lyon/Bron, France (7480): Direction du vent: 19.08.2019 18:00:00 - 25.08.2019 18:00:00 (CEST)Lyon/Bron, France (7480): reduced air pressure: 19.08.2019 18:00:00 - 25.08.2019 18:00:00 (CEST)Lyon/Bron, France (7480): visibility: 19.08.2019 18:00:00 - 25.08.2019 18:00:00 (CEST)Lyon/Bron, France (7480): Ensoleillement: 19.08.2019 18:00:00 - 25.08.2019 18:00:00 (CEST)Lyon/Bron, France (7480): Quantités de précipitations: 19.08.2019 18:00:00 - 25.08.2019 18:00:00 (CEST)
Date & Time tt [°C] td [°C] tt 5cm [°C] tt -20cm [°C] ff [km/h] ff [knt] fx [km/h] fx [knt] dd ppp [hPa] vv [km] sd [min] rr [mm]
25.08.2019 18:00:00 31,2 11,6 34,0 23,9 13 7 22 12 NNE 1016,1 54 60 0,0
25.08.2019 17:00:00 31,6 9,8 34,5 23,5 8 5 19 10 NNE 1016,1 50 60 0,0
25.08.2019 16:00:00 31,1 14,3 33,3 23,2 8 4 21 11 N 1016,5 20 60 0,0
25.08.2019 15:00:00 30,5 13,3 33,3 22,8 8 4 18 10 NW 1016,8 48 60 0,0
25.08.2019 14:00:00 29,0 15,5 32,8 22,6 6 3 16 8 WNW 1017,2 20 60 0,0
25.08.2019 13:00:00 28,2 14,1 30,9 22,4 6 3 13 7 NNE 1017,7 43 60 0,0
25.08.2019 12:00:00 26,9 15,3 29,7 22,3 5 3 16 9 N 1018,2 47 60 0,0
25.08.2019 11:00:00 25,3 15,0 26,2 22,4 3 2 11 6 S 1018,5 20 60 0,0
25.08.2019 10:00:00 22,4 15,3 22,9 22,5 5 3 11 6 SSW 1018,5 44 60 0,0
25.08.2019 09:00:00 19,4 15,3 15,7 22,6 3 1 6 3 SSE 1018,6 20 60 0,0
25.08.2019 08:00:00 16,3 15,0 13,3 22,8 2 1 8 4 NW 1018,5 23 24 0,0
25.08.2019 07:00:00 15,6 14,5 13,1 22,9 2 1 4 2 SE 1018,3 17 0 0,2
25.08.2019 06:00:00 16,0 14,5 13,5 23,1 0 0 4 2 N 1018,2 20 0 0,0
25.08.2019 05:00:00 16,7 14,7 13,7 23,3 4 2 6 3 SE 1018,0 20 0 0,0
25.08.2019 04:00:00 17,0 15,0 14,3 23,4 3 1 6 3 SE 1018,0 29 0 0,0
25.08.2019 03:00:00 17,8 15,1 14,7 23,6 5 3 9 5 SSE 1017,9 28 0 0,0
25.08.2019 02:00:00 19,0 15,9 15,5 23,7 6 3 8 4 S 1017,7 27 0 0,0
25.08.2019 01:00:00 19,6 16,1 16,3 23,9 3 2 7 4 S 1017,4 26 0 0,0
25.08.2019 00:00:00 21,3 16,0 16,9 24,0 3 1 7 4 NW 1017,3 28 0 0,0
24.08.2019 23:00:00 21,5 15,1 17,5 24,1 2 1 5 3 N 1017,1 29 0 0,0
24.08.2019 22:00:00 22,6 15,9 18,0 24,0 4 2 5 3 E 1016,7 16 0 0,0
24.08.2019 21:00:00 25,2 15,5 19,6 24,0 2 1 13 7 SE 1016,2 3,7 0 0,0
24.08.2019 20:00:00 29,2 15,0 24,6 23,9 9 5 14 8 NE 1015,8 54 41 0,0
24.08.2019 19:00:00 31,5 11,8 31,4 23,6 4 2 10 6 S 1015,7 56 60 0,0
24.08.2019 18:00:00 31,6 10,3 33,0 23,3 3 2 8 5 NW 1016,1 50 60 0,0
24.08.2019 17:00:00 31,7 13,5 33,1 23,0 3 2 18 10 ENE 1016,4 20 60 0,0
24.08.2019 16:00:00 30,6 13,8 32,2 22,6 3 2 16 9 WNW 1017,0 24 60 0,0
24.08.2019 15:00:00 29,6 15,3 32,0 22,3 7 4 19 10 SSE 1017,4 37 60 0,0
24.08.2019 14:00:00 28,5 17,4 30,9 22,0 9 5 22 12 SSE 1017,8 57 60 0,0
24.08.2019 13:00:00 27,0 16,3 29,7 21,8 11 6 28 15 S 1018,4 17 60 0,0
24.08.2019 12:00:00 25,3 16,4 27,7 21,8 11 6 21 11 SSE 1019,0 38 60 0,0
24.08.2019 11:00:00 23,8 16,6 24,8 21,8 8 4 17 9 SSE 1019,4 40 60 0,0
24.08.2019 10:00:00 20,6 16,0 21,2 21,9 3 2 13 7 S 1019,8 28 60 0,0
24.08.2019 09:00:00 17,8 15,2 14,9 22,1 4 2 8 5 SSW 1020,0 20 60 0,0
24.08.2019 08:00:00 15,3 14,3 12,0 22,2 5 3 7 4 S 1020,1 20 33 0,0
24.08.2019 07:00:00 14,1 13,3 11,5 22,4 2 1 7 4 S 1020,2 18 0 0,0
24.08.2019 06:00:00 14,5 13,4 11,9 22,6 3 1 5 3 S 1020,2 18 0 0,0
24.08.2019 05:00:00 15,0 13,9 12,6 22,8 3 2 6 3 SSE 1020,4 26 0 0,0
24.08.2019 04:00:00 15,8 14,3 12,9 23,0 5 3 9 5 S 1020,3 26 0 0,0
24.08.2019 03:00:00 16,4 14,4 13,2 23,1 0 0 7 4 N 1020,1 30 0 0,0
24.08.2019 02:00:00 17,5 14,8 14,0 23,3 4 2 10 5 S 1020,3 32 0 0,0
24.08.2019 01:00:00 18,0 14,9 14,6 23,4 7 4 13 7 S 1020,0 31 0 0,0
24.08.2019 00:00:00 17,8 14,9 14,4 23,6 5 3 7 4 S 1019,9 34 0 0,0
23.08.2019 23:00:00 18,2 14,5 14,9 23,7 4 2 6 3 SE 1019,8 41 0 0,0
23.08.2019 22:00:00 19,7 14,5 15,5 23,8 3 2 11 6 WSW 1019,9 45 0 0,0
23.08.2019 21:00:00 22,8 14,1 17,9 23,7 6 3 15 8 NE 1019,5 53 0 0,0
23.08.2019 20:00:00 24,9 14,7 22,4 23,6 9 5 18 10 N 1019,2 15 37 0,0
23.08.2019 19:00:00 26,4 15,1 28,1 23,4 11 6 22 12 N 1018,9 52 60 0,0
23.08.2019 18:00:00 26,8 13,9 30,0 23,0 11 6 23 13 N 1019,1 54 60 0,0
23.08.2019 17:00:00 27,1 14,5 29,6 22,6 13 7 23 12 N 1019,3 60 60 0,0
23.08.2019 16:00:00 27,1 13,8 30,0 22,3 11 6 26 14 NNE 1019,6 40 60 0,0
23.08.2019 15:00:00 26,4 15,7 29,5 21,9 10 5 20 11 NNE 1020,3 18 60 0,0
23.08.2019 14:00:00 25,4 16,3 28,6 21,6 9 5 20 11 ENE 1021,0 19 60 0,0
23.08.2019 13:00:00 24,1 16,1 28,3 21,4 4 2 18 10 NNW 1021,7 33 60 0,0
23.08.2019 12:00:00 22,6 15,4 25,5 21,4 5 3 15 8 WNW 1022,0 43 60 0,0
23.08.2019 11:00:00 20,7 14,8 23,5 21,4 5 3 11 6 N 1022,6 41 60 0,0
23.08.2019 10:00:00 19,9 14,9 20,5 21,5 6 3 14 8 N 1023,0 37 60 0,0
23.08.2019 09:00:00 17,7 14,4 14,8 21,7 7 4 12 6 NNW 1023,0 32 60 0,0
23.08.2019 08:00:00 15,0 14,4 11,8 21,8 5 3 9 5 NW 1023,1 27 35 0,0
23.08.2019 07:00:00 13,9 13,1 11,3 22,0 3 2 6 3 SSE 1023,0 19 0 0,0
23.08.2019 06:00:00 14,1 13,1 11,7 22,2 4 2 5 3 S 1022,8 16 0 0,0
23.08.2019 05:00:00 15,0 14,0 12,4 22,4 3 2 6 4 SSE 1022,8 21 0 0,0
23.08.2019 04:00:00 15,2 14,1 12,6 22,5 3 1 6 3 SSW 1022,7 18 0 0,0
23.08.2019 03:00:00 15,7 14,4 13,2 22,7 4 2 7 4 SSW 1022,7 26 0 0,0
23.08.2019 02:00:00 16,5 14,5 14,1 22,9 3 1 6 4 SSE 1022,9 28 0 0,0
23.08.2019 01:00:00 17,6 14,9 14,6 23,0 5 3 8 5 S 1022,9 32 0 0,0
23.08.2019 00:00:00 18,0 15,3 15,4 23,1 4 2 6 3 SW 1023,0 38 0 0,0
22.08.2019 23:00:00 18,5 15,0 15,5 23,2 3 2 4 2 W 1022,9 47 0 0,0
22.08.2019 22:00:00 19,7 14,7 16,2 23,2 0 0 6 3 N 1023,0 19 0 0,0
22.08.2019 21:00:00 22,1 14,7 17,8 23,2 4 2 14 8 N 1022,4 20 0 0,0
22.08.2019 20:00:00 23,7 14,9 21,9 23,0 11 6 21 12 N 1022,0 58 55 0,0
22.08.2019 19:00:00 24,5 15,1 26,8 22,7 11 6 25 13 N 1021,6 46 60 0,0
22.08.2019 18:00:00 25,1 14,8 28,1 22,4 15 8 35 19 N 1021,8 51 60 0,0
22.08.2019 17:00:00 24,8 14,0 28,7 22,1 13 7 26 14 N 1021,9 55 60 0,0
22.08.2019 16:00:00 24,6 13,8 27,4 21,7 12 6 22 12 N 1022,2 60 60 0,0
22.08.2019 15:00:00 24,2 14,0 28,2 21,4 11 6 26 14 N 1022,7 58 60 0,0
22.08.2019 14:00:00 23,0 14,0 26,6 21,1 9 5 22 12 N 1022,9 55 60 0,0
22.08.2019 13:00:00 21,8 14,7 25,9 21,0 9 5 25 13 NW 1023,3 50 60 0,0
22.08.2019 12:00:00 20,5 13,2 23,5 20,9 9 5 22 12 N 1023,8 42 60 0,0
22.08.2019 11:00:00 19,2 12,9 19,7 20,9 9 5 19 11 N 1023,8 31 55 0,0
22.08.2019 10:00:00 17,5 12,6 18,2 21,0 11 6 22 12 N 1023,8 47 32 0,0
22.08.2019 09:00:00 16,6 12,1 15,0 21,2 12 7 19 10 NNW 1023,4 48 60 0,0
22.08.2019 08:00:00 15,0 12,3 12,0 21,3 10 5 15 8 NNW 1023,2 44 17 0,0
22.08.2019 07:00:00 14,0 12,0 12,0 21,4 8 5 12 6 NNW 1022,8 38 0 0,0
22.08.2019 06:00:00 14,4 12,4 11,9 21,6 7 4 13 7 NNW 1022,5 46 0 0,0
22.08.2019 05:00:00 14,4 12,4 12,0 21,7 6 3 10 5 NW 1022,4 52 0 0,0
22.08.2019 04:00:00 15,2 12,5 12,8 21,9 5 3 8 4 NW 1022,2 56 0 0,0
22.08.2019 03:00:00 15,7 12,6 13,2 22,0 4 2 11 6 WNW 1022,4 57 0 0,0
22.08.2019 02:00:00 15,8 12,5 13,5 22,1 9 5 11 6 NW 1022,5 60 0 0,0
22.08.2019 01:00:00 16,1 12,3 13,6 22,2 3 1 9 5 WNW 1022,6 60 0 0,0
22.08.2019 00:00:00 17,8 12,0 14,7 22,3 6 4 12 7 NW 1022,5 60 0 0,0
21.08.2019 23:00:00 19,2 12,2 16,4 22,3 10 6 16 9 NNW 1022,4 60 0 0,0
21.08.2019 22:00:00 20,7 12,7 19,3 22,3 11 6 21 12 NNW 1022,4 60 0 0,0
21.08.2019 21:00:00 21,5 13,7 20,4 22,2 13 7 21 11 N 1021,9 60 0 0,0
21.08.2019 20:00:00 22,2 14,1 21,2 22,1 13 7 20 11 NNW 1021,4 60 0 0,0
21.08.2019 19:00:00 22,5 14,6 22,1 21,9 9 5 22 12 N 1021,4 60 0 0,0
21.08.2019 18:00:00 22,7 14,5 23,2 21,7 13 7 19 10 N 1021,7 59 1 0,0
21.08.2019 17:00:00 22,2 14,1 23,2 21,4 11 6 21 12 N 1022,0 58 1 0,0
21.08.2019 16:00:00 22,2 13,5 24,2 21,1 12 7 24 13 NNE 1022,5 52 39 0,0
21.08.2019 15:00:00 21,0 13,7 23,6 20,8 12 7 - - N 1023,0 56 36 0,0
21.08.2019 14:00:00 20,1 13,3 23,2 20,6 16 9 27 14 NNE 1023,1 60 51 0,0
21.08.2019 13:00:00 18,9 13,3 22,5 20,5 13 7 25 14 NE 1024,0 48 60 0,0
21.08.2019 12:00:00 16,6 11,9 17,7 20,4 - - - - - 1025,2 52 21 0,0
21.08.2019 11:00:00 15,4 11,8 16,2 20,5 - - - - - 1025,4 20 6 0,0
21.08.2019 10:00:00 14,2 11,2 14,4 20,5 - - - - - 1025,2 49 0 0,0
21.08.2019 09:00:00 13,4 11,3 13,1 20,6 6 4 17 9 N 1025,3 38 0 0,0
21.08.2019 08:00:00 12,9 11,5 12,5 20,7 8 4 16 8 NNE 1025,4 32 0 0,0
21.08.2019 07:00:00 12,7 11,9 11,4 20,9 4 2 16 9 N 1025,3 21 0 0,0
21.08.2019 06:00:00 12,6 11,8 11,6 21,0 11 6 18 10 NNW 1024,9 20 0 0,0
21.08.2019 05:00:00 12,7 11,9 11,6 21,1 11 6 22 12 NNW 1025,2 18 0 0,0
21.08.2019 04:00:00 13,5 12,6 12,6 21,2 12 7 18 10 NNW 1025,4 20 0 0,0
21.08.2019 03:00:00 14,2 13,4 13,7 21,3 16 9 26 14 NNW 1025,4 14 0 0,0
21.08.2019 02:00:00 14,3 13,3 12,5 21,4 13 7 17 9 NNW 1025,7 20 0 0,0
21.08.2019 01:00:00 14,1 13,3 12,5 21,5 9 5 14 8 N 1025,9 15 0 0,0
21.08.2019 00:00:00 14,9 13,9 13,3 21,6 9 5 14 7 N 1026,0 21 0 0,0
20.08.2019 23:00:00 15,3 14,3 13,7 21,7 11 6 13 7 NNW 1026,0 17 0 0,0
20.08.2019 22:00:00 15,6 14,3 14,1 21,7 9 5 16 9 N 1026,0 23 0 0,0
20.08.2019 21:00:00 16,3 14,7 15,0 21,8 10 5 15 8 NNW 1025,7 19 9 0,0
20.08.2019 20:00:00 17,7 15,0 17,7 21,8 10 5 16 8 N 1025,2 41 36 0,0
20.08.2019 19:00:00 17,2 15,2 16,6 21,8 11 6 16 9 N 1025,1 37 2 0,0
20.08.2019 18:00:00 16,6 15,3 15,6 21,8 4 2 19 10 N 1025,2 32 0 0,4
20.08.2019 17:00:00 16,6 15,1 - - 8 4 13 7 NW 1025,6 19 - -
20.08.2019 16:00:00 16,5 15,0 15,8 21,9 6 3 14 8 NNW 1024,8 3,7 0 2,0
20.08.2019 15:00:00 16,8 15,3 16,0 21,9 9 5 16 9 NNW 1024,2 13 0 1,4
20.08.2019 14:00:00 16,5 15,0 16,2 21,9 11 6 18 10 NW 1023,5 2,9 0 0,6
20.08.2019 13:00:00 16,4 15,3 16,2 22,0 11 6 16 9 W 1023,6 7 0 1,4
20.08.2019 12:00:00 16,5 15,4 16,0 22,1 6 4 19 11 W 1023,3 4,4 0 1,0
20.08.2019 11:00:00 16,2 15,2 15,8 22,1 7 4 16 9 NW 1022,5 6 0 1,3
20.08.2019 10:00:00 16,1 15,3 15,7 22,2 9 5 12 7 NNW 1021,9 7 0 1,6
20.08.2019 09:00:00 16,0 15,0 15,5 22,3 0 0 8 4 N 1022,1 7 0 1,2
20.08.2019 08:00:00 15,9 14,9 15,3 22,4 4 2 6 4 WNW 1021,5 9 0 1,0
20.08.2019 07:00:00 16,0 14,9 15,2 22,5 4 2 12 7 S 1021,4 11 0 1,0
20.08.2019 06:00:00 16,2 14,4 15,3 22,6 12 6 17 9 NNW 1020,0 16 0 0,8
20.08.2019 05:00:00 16,8 15,8 16,2 22,7 5 3 9 5 WSW 1020,4 19 0 0,2
20.08.2019 04:00:00 17,0 16,4 15,6 22,8 8 5 11 6 WSW 1020,7 19 0 0,0
20.08.2019 03:00:00 16,4 15,1 15,4 22,9 0 0 8 4 N 1020,5 19 0 0,0
20.08.2019 02:00:00 17,2 16,1 16,3 23,0 2 1 4 2 SSE 1020,8 10 0 0,2
20.08.2019 01:00:00 17,2 15,9 15,6 23,1 3 2 8 4 SE 1021,2 31 0 0,0
20.08.2019 00:00:00 17,3 15,3 15,7 23,2 5 3 17 9 E 1021,4 32 0 2,2
19.08.2019 23:00:00 18,5 14,2 17,7 23,3 7 4 13 7 W 1021,1 53 0 0,0
19.08.2019 22:00:00 18,3 14,4 17,5 23,4 6 4 9 5 WSW 1020,8 52 0 0,0
19.08.2019 21:00:00 18,4 13,7 17,6 23,4 4 2 5 3 WSW 1020,5 57 0 0,0
19.08.2019 20:00:00 18,5 13,6 18,0 23,5 3 2 7 4 W 1020,4 59 0 0,0
19.08.2019 19:00:00 18,7 13,1 18,6 23,5 3 2 10 5 N 1020,1 60 0 0,0
19.08.2019 18:00:00 18,4 13,0 18,7 23,6 6 4 11 6 NW 1020,1 60 0 0,0

tt = Température de l'air
td = dewpoint
tt 5cm = Température de l'air 5cm
tt -20cm = Température de l'air -20cm
ff = Vitesse du vent
fx = gusts
dd = Direction du vent
ppp = reduced air pressure
vv = visibility
sd = Ensoleillement
rr = Quantités de précipitations

stations d'obs. à proximité